Location: Lesignano de� Bagni
(44.6500°N, 10.3000°E)
Time: 23:14:10
(UTC+00:00)

GP-B - Visible Passes

Search period start: 24 June 2021 00:00
Search period end: 04 July 2021 00:00
Orbit: 631 x 634 km, 89.8° (Epoch: 24 June)

Date Brightness Start Highest point End Pass type
(mag) Time Alt. Az. Time Alt. Az. Time Alt. Az.
24 Jun 5.3 00:27:18 10° NW 00:29:32 14° WNW 00:30:51 12° W visible
24 Jun 5.4 21:35:01 10° ENE 21:36:30 11° ENE 21:37:35 11° E visible
24 Jun 3.1 23:09:54 10° N 23:14:20 72° W 23:15:02 59° SW visible
25 Jun 4.7 21:55:01 10° NNE 21:58:22 21° E 21:59:12 20° E visible
25 Jun 4.0 23:31:41 10° NNW 23:35:49 38° W 23:36:39 35° WSW visible
26 Jun 3.9 22:15:59 10° NNE 22:20:07 37° E 22:20:49 34° ESE visible
26 Jun 4.8 23:53:48 10° NNW 23:57:11 22° WNW 23:58:16 20° W visible
27 Jun 3.1 22:37:19 10° N 22:41:46 69° E 22:42:27 58° SE visible
28 Jun 5.5 00:16:40 10° NW 00:18:27 12° WNW 00:19:53 11° W visible
28 Jun 5.2 21:23:29 10° NE 21:25:33 13° ENE 21:26:38 12° E visible
28 Jun 3.3 22:58:54 10° N 23:03:19 63° W 23:04:04 53° SW visible
29 Jun 4.6 21:43:50 10° NNE 21:47:24 23° E 21:48:15 22° E visible
29 Jun 4.2 23:20:45 10° NNW 23:24:46 34° W 23:25:42 31° WSW visible
30 Jun 3.7 22:04:54 10° NNE 22:09:07 41° E 22:09:53 38° ESE visible
30 Jun 5.0 23:42:57 10° NNW 23:46:06 19° WNW 23:47:20 17° W visible
01 Jul 3.0 22:26:17 10° N 22:30:45 78° E 22:31:31 60° SSE visible
02 Jul 5.6 00:06:15 10° WNW 00:07:22 11° WNW 00:08:27 10° W visible
02 Jul 5.1 21:12:06 10° NE 21:14:36 15° ENE 21:15:42 14° E visible
02 Jul 3.5 22:47:55 10° N 22:52:17 56° W 22:53:09 47° SW visible
03 Jul 4.4 21:32:40 10° NNE 21:36:25 26° E 21:37:21 24° ESE visible
03 Jul 4.4 23:09:49 10° NNW 23:13:43 30° W 23:14:47 27° WSW visible
